[[{"header":{"parameterUnit":"m.s-1","parameterCategory":1,"la1":30.2991,"la2":30.254,"lo1":-89.0895,"lo2":-89.0444,"dy":0.0017,"dx":0.0017,"nx":28,"ny":28,"refTime":"2024-08-23T21:00:00:Z","depth":0,"parameterNumber":2,"parameterNumberName":"U-component_of_WINDS"},"data":[0,0,0,0,0,0,0,0,0,0,0,0,0,0,0,0,0,0,0,0,0,0,0,0,0,0,0,0,0,0,0,0,0,0,0,0,0,0,0,0,0,0,0,0,0,0,0,0,0,0,0,0,0,0,0,0,0,0,-5.4175,-5.4176,0,-5.4216,-5.4216,-5.4217,-5.4091,-5.4088,-5.4084,-5.408,-5.4123,-5.4128,-5.4132,0,0,0,0,0,0,0,0,0,0,0,0,0,-5.3991,-5.3995,-5.4175,-5.4176,-5.4176,-5.4216,-5.4216,-5.4217,-5.4092,-5.4087,-5.4083,-5.4078,-5.4121,-5.4127,-5.4133,0,0,0,0,0,0,0,0,0,0,0,0,0,-5.4055,-5.3996,-5.4175,-5.4119,-5.4114,-5.4216,-5.4216,-5.4217,-5.4093,-5.4087,-5.4082,-5.4076,-5.412,-5.4126,-5.4133,-5.4292,0,0,-5.4155,-5.4158,0,0,0,0,0,0,0,0,-5.4052,-5.4062,-5.4127,-5.4123,-5.4118,-5.4143,-5.4167,-5.4242,-5.4095,-5.4101,-5.408,-5.4073,-5.4134,-5.414,-5.416,-5.4294,-5.4296,-5.4156,-5.416,-5.4163,-5.4165,0,0,0,0,0,0,0,-5.4048,-5.406,-5.4191,-5.4128,-5.4122,-5.4092,-5.4095,-5.4181,-5.4149,-5.41,-5.4091,-5.4098,-5.4131,-5.4154,-5.416,-5.4296,-5.4155,-5.4162,-5.4166,-5.4169,-5.4564,-5.457,0,0,0,0,0,0,-5.405,-5.4057,-5.419,-5.4192,-5.407,-5.41,-5.4103,-5.4141,-5.4148,-5.4144,-5.4102,-5.4092,-5.4144,-5.4152,-5.4161,-5.4349,-5.4163,-5.417,-5.4174,-5.4558,-5.4566,-5.4572,0,0,0,0,0,0,-5.4047,-5.4063,-5.4188,-5.4122,-5.4136,-5.4109,-5.4152,-5.4144,-5.4167,-5.415,-5.4144,-5.4131,-5.414,-5.4151,-5.4261,-5.4348,-5.4173,-5.4179,-5.4551,-5.456,-5.4569,-5.4725,0,0,0,0,0,0,-5.4042,-5.4063,-5.4122,-5.4125,-5.414,-5.4287,-5.4158,-5.4149,-5.4179,-5.4166,-5.4175,-5.4172,-5.4136,-5.4251,-5.4268,-5.4355,-5.4185,-5.4543,-5.4555,-5.4566,-5.4712,-5.4738,-5.4761,0,0,0,0,0,-5.4036,-5.4164,-5.4126,-5.4143,-5.4214,-5.4293,-5.4301,-5.4258,-5.4187,-5.4247,-5.4236,-5.4171,-5.4336,-5.4263,-5.4281,-5.4372,-5.4537,-5.4552,-5.4565,-5.4701,-5.4733,-5.476,0,0,0,0,0,0,-5.4173,-5.4164,-5.4121,-5.4254,-5.4275,-5.4271,-5.4345,-5.4293,-5.4335,-5.4321,-5.4265,-5.4269,-5.4389,-5.4391,-5.431,-5.4526,-5.4424,-5.4443,-5.4521,-5.4552,-5.4576,-5.4574,-5.4191,0,0,0,0,0,-5.4219,-5.4283,-5.4271,-5.439,-5.4403,-5.4373,-5.4405,-5.437,-5.439,-5.4398,-5.4395,-5.4418,-5.4474,-5.4513,-5.4564,-5.4711,-5.4712,-5.4782,-5.4807,-5.4827,-5.4844,-5.4924,-5.4956,-5.4619,-5.4619,-5.4618,0,0,-5.4314,-5.4317,-5.4361,-5.4418,-5.443,-5.4499,-5.4381,-5.4458,-5.4509,-5.441,-5.4514,-5.4513,-5.4534,-5.4663,-5.472,-5.4669,-5.4938,-5.4845,-5.4862,-5.4868,-5.4942,-5.4974,-5.5002,-5.4628,-5.4627,-5.4625,0,0,-5.4523,-5.4531,-5.4632,-5.4646,-5.4666,-5.4646,-5.467,-5.4675,-5.467,-5.4773,-5.4701,-5.476,-5.4859,-5.4877,-5.49,-5.5117,-5.506,-5.5135,-5.5265,-5.5344,-5.537,-5.5393,-5.5473,-5.5502,-5.5152,-5.5152,-5.5153,0,-5.4639,-5.474,-5.469,-5.4773,-5.4801,-5.4714,-5.4816,-5.4833,-5.4869,-5.489,-5.4832,-5.4955,-5.4962,-5.5096,-5.515,-5.517,-5.5197,-5.5135,-5.537,-5.5393,-5.5414,-5.5489,-5.5519,-5.5162,-5.5161,-5.516,-5.5159,0,-5.4882,-5.4953,-5.5032,-5.5069,-5.5106,-5.5198,-5.5163,-5.5206,-5.5168,-5.5154,-5.5261,-5.5267,-5.5319,-5.5348,-5.5311,-5.5477,-5.5445,-5.5379,-5.5276,-5.5456,-5.5526,-5.5555,-5.5175,-5.5171,-5.5169,-5.5166,0,0,-5.5179,-5.5189,-5.5219,-5.5235,-5.5251,-5.5306,-5.5394,-5.5445,-5.5484,-5.5511,-5.5585,-5.5671,-5.5611,-5.5637,-5.5601,-5.567,-5.5845,-5.5596,-5.5596,-5.5644,-5.603,-5.6081,-5.6115,-5.5806,-5.5811,-5.5815,-5.6029,0,-5.5387,-5.5538,-5.5497,-5.5649,-5.5715,-5.5634,-5.5711,-5.573,-5.572,-5.5774,-5.5762,-5.5825,-5.574,-5.5755,-5.5819,-5.581,-5.5922,-5.5794,-5.5876,-5.588,-5.5875,-5.6151,-5.6205,-5.6406,-5.6056,-5.6061,-5.6064,0,-5.5649,-5.5688,-5.5847,-5.5853,-5.5879,-5.595,-5.5994,-5.6046,-5.6067,-5.6054,-5.6084,-5.6035,-5.6123,-5.6018,-5.6141,-5.6054,-5.6085,-5.6086,-5.6093,-5.61,-5.5984,-5.6168,-5.6469,-5.6501,-5.6106,-5.6103,-5.61,0,-5.5852,-5.5944,-5.6051,-5.6068,-5.6078,-5.613,-5.6136,-5.6151,-5.6184,-5.6223,-5.6244,-5.6292,-5.632,-5.6358,-5.6324,-5.6251,-5.6453,-5.6345,-5.6447,-5.6448,-5.6494,-5.6492,-5.6807,-5.6511,-5.6511,-5.651,-5.651,0,-5.6089,-5.619,-5.6143,-5.621,-5.6321,-5.6272,-5.6384,-5.6381,-5.6395,-5.646,-5.6392,-5.6455,-5.6405,-5.6464,-5.6438,-5.6544,-5.6556,-5.655,-5.6542,-5.6557,-5.6558,-5.6578,-5.6564,-5.6518,-5.6517,-5.6515,-5.6514,0,-5.6336,-5.6308,-5.642,-5.6421,-5.6423,-5.6506,-5.6506,-5.6568,-5.6552,-5.6636,-5.6653,-5.6629,-5.6695,-5.6664,-5.6733,-5.6715,-5.6853,-5.6826,-5.6847,-5.684,-5.6945,-5.6936,-5.7285,-5.7329,-5.7004,-5.7007,-5.7009,0,-5.649,-5.6566,-5.6575,-5.6613,-5.6625,-5.6688,-5.6722,-5.6677,-5.6716,-5.6745,-5.6805,-5.6864,-5.691,-5.7019,-5.7008,-5.7061,-5.7036,-5.7154,-5.7043,-5.7057,-5.704,-5.7037,-5.7045,-5.7177,-5.7181,-5.7184,-5.7186,0,-5.6767,-5.6749,-5.6801,-5.6849,-5.6892,-5.6927,-5.6957,-5.6993,-5.6949,-5.6996,-5.7062,-5.7098,-5.7168,-5.723,-5.7276,-5.7283,-5.7229,-5.7221,-5.7248,-5.7265,-5.7275,-5.7273,-5.691,-5.7214,-5.7211,-5.7209,-5.7207,-5.7206,-5.6973,-5.7037,-5.7054,-5.7115,-5.7132,-5.7162,-5.7221,-5.7213,-5.7267,-5.7322,-5.7291,-5.737,-5.7389,-5.7446,-5.7461,-5.7522,-5.7476,-5.7514,-5.7524,-5.7535,-5.755,-5.7264,-5.753,-5.7529,-5.7529,-5.7528,-5.7527,0,-5.7248,-5.7255,-5.7311,-5.7355,-5.7403,-5.7347,-5.7377,-5.7421,-5.7491,-5.7513,-5.756,-5.7638,-5.7697,-5.7691,-5.7745,-5.7796,-5.7773,-5.7812,-5.7809,-5.7812,-5.7587,-5.756,-5.783,-5.783,-5.783,-5.783,-5.783,-5.783,-5.7397,-5.7504,-5.7489,-5.7605,-5.761,-5.7687,-5.7709,-5.7737,-5.7755,-5.7844,-5.7893,-5.7889,-5.7901,-5.7956,-5.8008,-5.8005,-5.8029,-5.8079,-5.8067,-5.7857,-5.7827,-5.7799,-5.7773,-5.8084,-5.8084,-5.8286,-5.8288,-5.829]},{"header":{"parameterUnit":"m.s-1","parameterCategory":1,"la1":30.2991,"la2":30.254,"lo1":-89.0895,"lo2":-89.0444,"dy":0.0017,"dx":0.0017,"nx":28,"ny":28,"refTime":"2024-08-23T21:00:00:Z","depth":0,"parameterNumber":3,"parameterNumberName":"V-component_of_WINDS"},"data":[0,0,0,0,0,0,0,0,0,0,0,0,0,0,0,0,0,0,0,0,0,0,0,0,0,0,0,0,0,0,0,0,0,0,0,0,0,0,0,0,0,0,0,0,0,0,0,0,0,0,0,0,0,0,0,0,0,0,-2.4688,-2.4688,0,-2.4639,-2.4639,-2.4638,-2.4569,-2.4568,-2.4567,-2.4566,-2.4517,-2.4517,-2.4517,0,0,0,0,0,0,0,0,0,0,0,0,0,-2.4722,-2.4722,-2.4688,-2.4687,-2.4687,-2.4639,-2.4639,-2.4638,-2.4569,-2.4568,-2.4567,-2.4565,-2.4517,-2.4517,-2.4517,0,0,0,0,0,0,0,0,0,0,0,0,0,-2.4694,-2.4722,-2.4688,-2.4647,-2.4643,-2.4639,-2.4639,-2.4638,-2.457,-2.4568,-2.4566,-2.4565,-2.4517,-2.4517,-2.4516,-2.455,0,0,-2.4516,-2.4515,0,0,0,0,0,0,0,0,-2.4696,-2.4693,-2.4654,-2.465,-2.4645,-2.4608,-2.4633,-2.4608,-2.457,-2.4598,-2.4566,-2.4564,-2.4549,-2.4546,-2.4541,-2.4548,-2.4546,-2.4516,-2.4515,-2.4515,-2.4515,0,0,0,0,0,0,0,-2.4698,-2.4694,-2.4669,-2.4653,-2.4648,-2.4631,-2.4625,-2.4628,-2.4584,-2.4595,-2.459,-2.4585,-2.4546,-2.4541,-2.4539,-2.4545,-2.4516,-2.4515,-2.4515,-2.4515,-2.4576,-2.4578,0,0,0,0,0,0,-2.4706,-2.4696,-2.467,-2.4667,-2.4666,-2.4632,-2.4625,-2.4622,-2.4584,-2.4576,-2.4587,-2.4582,-2.4542,-2.4539,-2.4537,-2.4573,-2.4515,-2.4515,-2.4515,-2.4574,-2.4576,-2.4578,0,0,0,0,0,0,-2.4707,-2.4704,-2.4672,-2.468,-2.4675,-2.4633,-2.463,-2.4622,-2.4617,-2.4577,-2.4569,-2.4589,-2.4541,-2.4537,-2.4547,-2.4571,-2.4515,-2.4515,-2.4572,-2.4575,-2.4577,-2.4646,0,0,0,0,0,0,-2.4708,-2.4705,-2.4717,-2.4681,-2.4675,-2.4683,-2.4632,-2.4622,-2.4616,-2.461,-2.4578,-2.4571,-2.4539,-2.4548,-2.4547,-2.4569,-2.4514,-2.457,-2.4573,-2.4576,-2.4642,-2.4651,-2.4659,0,0,0,0,0,-2.4709,-2.4739,-2.4718,-2.4715,-2.469,-2.4685,-2.4681,-2.4644,-2.4618,-2.4631,-2.4605,-2.4572,-2.4568,-2.4549,-2.4548,-2.457,-2.4568,-2.4572,-2.4576,-2.4638,-2.4649,-2.4659,0,0,0,0,0,0,-2.478,-2.4734,-2.471,-2.4729,-2.4711,-2.4673,-2.4687,-2.4658,-2.4647,-2.4642,-2.4596,-2.459,-2.4605,-2.4588,-2.4568,-2.46,-2.4563,-2.4567,-2.4611,-2.4621,-2.463,-2.4634,-2.4514,0,0,0,0,0,-2.4797,-2.4797,-2.4757,-2.4777,-2.477,-2.473,-2.4727,-2.47,-2.468,-2.4672,-2.4647,-2.4629,-2.4624,-2.4621,-2.4614,-2.4639,-2.4631,-2.4653,-2.4662,-2.4669,-2.4673,-2.4684,-2.4694,-2.4592,-2.4591,-2.4591,0,0,-2.4834,-2.4809,-2.4811,-2.4791,-2.4774,-2.4775,-2.4725,-2.4728,-2.4728,-2.4673,-2.468,-2.4661,-2.4638,-2.4655,-2.4661,-2.4642,-2.47,-2.4674,-2.4681,-2.4681,-2.469,-2.4699,-2.4708,-2.4594,-2.4594,-2.4593,0,0,-2.4901,-2.4882,-2.4897,-2.488,-2.4855,-2.4828,-2.4832,-2.4798,-2.4783,-2.479,-2.4748,-2.4747,-2.4739,-2.4724,-2.4716,-2.4776,-2.4745,-2.4775,-2.482,-2.4831,-2.4839,-2.4846,-2.4867,-2.4876,-2.4779,-2.4779,-2.4779,0,-2.495,-2.4949,-2.4908,-2.4914,-2.4906,-2.4855,-2.4869,-2.4855,-2.483,-2.4825,-2.4803,-2.4791,-2.4772,-2.4785,-2.4799,-2.4794,-2.4796,-2.4778,-2.4841,-2.4848,-2.4854,-2.4873,-2.4882,-2.4783,-2.4782,-2.4782,-2.4781,0,-2.5011,-2.5011,-2.5026,-2.5001,-2.4995,-2.5005,-2.4965,-2.4963,-2.4936,-2.4912,-2.4919,-2.4894,-2.488,-2.4881,-2.4855,-2.489,-2.4878,-2.485,-2.4811,-2.4868,-2.4886,-2.4893,-2.4788,-2.4787,-2.4786,-2.4785,0,0,-2.5122,-2.5073,-2.508,-2.5068,-2.5035,-2.5035,-2.5042,-2.5028,-2.5028,-2.5011,-2.5016,-2.5009,-2.4982,-2.4972,-2.4944,-2.4954,-2.5003,-2.4924,-2.4922,-2.4939,-2.5039,-2.5061,-2.507,-2.4981,-2.4983,-2.4984,-2.504,0,-2.5183,-2.5193,-2.5156,-2.5175,-2.5174,-2.5125,-2.5131,-2.5112,-2.5089,-2.5085,-2.506,-2.5056,-2.502,-2.5014,-2.5022,-2.4995,-2.5022,-2.499,-2.4986,-2.4986,-2.4994,-2.5079,-2.5103,-2.5158,-2.5047,-2.5048,-2.5049,0,-2.5256,-2.5243,-2.5262,-2.5228,-2.5226,-2.5233,-2.5216,-2.5213,-2.519,-2.5172,-2.5161,-2.5128,-2.5132,-2.5095,-2.51,-2.508,-2.5075,-2.5062,-2.5063,-2.5062,-2.5022,-2.5081,-2.5175,-2.5183,-2.506,-2.5059,-2.5058,0,-2.5336,-2.5322,-2.5332,-2.5323,-2.5283,-2.5289,-2.5272,-2.5247,-2.5241,-2.5227,-2.5222,-2.5209,-2.5202,-2.5192,-2.5156,-2.5133,-2.5166,-2.5126,-2.5151,-2.5152,-2.5161,-2.5161,-2.5256,-2.5158,-2.5158,-2.5158,-2.5158,0,-2.5408,-2.5422,-2.5367,-2.5373,-2.5387,-2.5343,-2.5358,-2.5337,-2.5315,-2.5316,-2.5272,-2.5274,-2.5226,-2.5222,-2.5194,-2.5202,-2.5199,-2.5185,-2.5178,-2.5189,-2.5191,-2.5186,-2.5182,-2.516,-2.5159,-2.5159,-2.5159,0,-2.55,-2.5463,-2.5471,-2.5432,-2.5422,-2.5434,-2.5401,-2.5405,-2.5378,-2.538,-2.5378,-2.5337,-2.533,-2.5292,-2.5277,-2.5258,-2.5277,-2.5261,-2.5285,-2.528,-2.5307,-2.5305,-2.5403,-2.5413,-2.5308,-2.5309,-2.531,0,-2.5549,-2.5558,-2.552,-2.5517,-2.5503,-2.5499,-2.5492,-2.5449,-2.5444,-2.5417,-2.5424,-2.5414,-2.5403,-2.5395,-2.5363,-2.5351,-2.5335,-2.537,-2.5333,-2.5344,-2.5336,-2.5336,-2.5336,-2.5378,-2.538,-2.5381,-2.5382,0,-2.564,-2.5621,-2.5613,-2.5598,-2.5591,-2.5577,-2.5561,-2.5561,-2.5513,-2.5509,-2.5502,-2.5493,-2.5477,-2.5467,-2.5449,-2.5432,-2.5399,-2.5393,-2.5399,-2.5411,-2.5424,-2.5418,-2.5307,-2.5392,-2.5391,-2.539,-2.5389,-2.5389,-2.5712,-2.5717,-2.5691,-2.5683,-2.5666,-2.5652,-2.5653,-2.5626,-2.5619,-2.5602,-2.5577,-2.5573,-2.5548,-2.552,-2.5506,-2.5501,-2.5483,-2.549,-2.5492,-2.5495,-2.5501,-2.5425,-2.5498,-2.5498,-2.5497,-2.5497,-2.5497,0,-2.58,-2.5781,-2.5774,-2.5752,-2.5745,-2.5714,-2.5694,-2.5691,-2.5687,-2.5667,-2.5657,-2.5647,-2.5637,-2.5604,-2.5591,-2.5594,-2.5578,-2.5591,-2.5591,-2.5588,-2.5519,-2.5516,-2.5604,-2.5604,-2.5604,-2.5604,-2.5604,-2.5604,-2.5846,-2.5854,-2.5832,-2.583,-2.581,-2.5805,-2.5797,-2.5783,-2.5766,-2.5758,-2.5749,-2.5727,-2.5701,-2.5685,-2.5674,-2.5665,-2.5662,-2.568,-2.5666,-2.5603,-2.5593,-2.5583,-2.558,-2.568,-2.568,-2.5735,-2.5736,-2.5736]}]]